User: anonymous   Login
Location: Unspecified
(0.0000°N, 0.0000°E)
Time: 04:01:49
(UTC+00:00)
Language:

Altair - Orbit

View from above orbital plane
View from above orbital plane
View from above satellite
View from above satellite

Ground track
Ground track

The orbit data is extracted from the following two-line orbital elements,

1 00050U 60009B   14301.71012179 -.00000133  00000-0 -45327-3 0  1307
2 00050 047.2336 030.8139 0113719 309.8674 049.2158 12.20086238419314
Epoch (UTC): 28 October 2014 17:02:34
Eccentricity: 0.0113719
inclination: 47.2336°
perigee height: 1501 km
apogee height: 1683 km
right ascension of ascending node: 30.8139°
argument of perigee: 309.8674°
revolutions per day: 12.20086238
mean anomaly at epoch: 49.2158°
orbit number at epoch: 41931

The dashed part of the orbit path shows where the satellite is in the earth's shadow,  

DLR